Flag for U.S.A. Weather past 2 weeks in Owensboro, Kentucky, U.S.A.

Now
59 °F

Clear.


Feels Like: 59 °F
Forecast: 60 / 83 °F
Wind: No wind

Location: Owensboro / Daviess

Current Time: Jul 25, 2014 at 5:06:50 AM

Latest Report: Jul 25, 2014 at 3:56 AM


Visibility: 10 mi

Pressure: 30.05 "Hg

Humidity: 80%

Dew point: 53 °F

Location of OwensboroLocation

Historic Weather in Owensboro — Graph

°F

Owensboro temperature yesterday

Maximum temperature yesterday: 81 °F (at 2:56 PM)
Minimum temperature yesterday: 64 °F (at 5:56 AM)
Average temperature yesterday: 72 °F

Past Weeks' High & Low Weather Summary

 TemperatureHumidityPressure
High95 °F (Jul 13, 2:56 PM)100% (Jul 14, 5:56 AM)30.19 "Hg (Jul 14, 5:56 AM)
Low55 °F (Jul 16, 5:56 AM)31% (Jul 17, 2:56 PM)29.84 "Hg (Jul 14, 6:56 PM)
Average74 °F70%30.04 "Hg
* Reported Jul 10 3:56 AM — Jul 25 3:56 AM, Owensboro, Weather by CustomWeather, © 2014

Note: Actual official high and low records may vary slightly from our data, if they occured in-between our weather recording intervals... More about our weather records

Advertising

Owensboro weather history for previous 24 hours

 ConditionsComfort  
Time TempWeatherWind HumidityBarometerVisibility
3:56 AM
Jul 25
59 °FClear.No wind80%30.05 "Hg10 mi
2:56 AM62 °FClear.No wind75%30.06 "Hg10 mi
1:56 AM63 °FClear.No wind75%30.04 "Hg10 mi
12:56 AM62 °FClear.No wind78%30.04 "Hg10 mi
11:56 PM
Jul 24
68 °FClear.3 mph61%30.04 "Hg10 mi
10:56 PM69 °FClear.5 mph61%30.04 "Hg10 mi
9:56 PM71 °FClear.6 mph61%30.05 "Hg10 mi
8:56 PM73 °FPassing clouds.No wind55%30.03 "Hg10 mi
7:56 PM76 °FPassing clouds.6 mph48%30.02 "Hg10 mi
6:56 PM77 °FScattered clouds.6 mph46%30.02 "Hg10 mi
5:56 PM79 °FSunny.7 mph44%30.00 "Hg10 mi
4:56 PM79 °FScattered clouds.8 mph44%30.01 "Hg10 mi
3:56 PM80 °FPartly sunny.9 mph42%30.03 "Hg10 mi
2:56 PM81 °FPartly sunny.12 mph42%30.03 "Hg10 mi
1:56 PM79 °FPartly sunny.7 mph45%30.05 "Hg10 mi
12:56 PM78 °FScattered clouds.12 mph48%30.03 "Hg10 mi
11:56 AM78 °FPartly sunny.13 mph50%30.05 "Hg10 mi
10:56 AM76 °FScattered clouds.12 mph56%30.05 "Hg10 mi
9:56 AM72 °FScattered clouds.8 mph68%30.05 "Hg10 mi
8:56 AM68 °FScattered clouds.9 mph78%30.05 "Hg10 mi
7:56 AM67 °FSunny.9 mph78%30.04 "Hg10 mi
6:56 AM65 °FPartly sunny.6 mph81%30.02 "Hg10 mi
5:56 AM64 °FPartly cloudy.5 mph81%30.00 "Hg10 mi
Weather by CustomWeather, © 2014

See weather overviewHow to use our weather pages